DW6455 Weather Reports


Display with metric or nautical units.
time (UTC)temp
F
wind
direction
speed
MPH
gust
MPH
rain 1hr
in
rain 24hr
in
rain mn
in
humidity
%
barometer
mb
20260904064521 53 0.0 2.0 0.00 0.00 0.00 1 999.0
20260904063520 52 0.0 0.0 0.00 0.00 0.00 1 999.0
20260904062521 52 0.0 0.0 0.00 0.00 0.00 1 999.1
20260904061521 52 0.0 2.0 0.00 0.00 0.00 1 999.2
20260904060521 51 0.0 0.0 0.00 0.00 0.00 1 999.2
20260904055521 51 0.0 0.0 0.00 0.00 0.00 1 999.3
20260904054521 50 0.0 0.0 0.00 0.00 0.00 1 999.3
20260904053541 49 0.0 0.0 0.00 0.00 0.00 1 999.4
20260904043521 46 0.0 0.0 0.00 0.00 0.00 1 999.6
20260904042521 46 0.0 0.0 0.00 0.00 0.00 1 999.7
20260904041520 45 0.0 0.0 0.00 0.00 0.00 1 999.8
20260904040521 45 0.0 0.0 0.00 0.00 0.00 1 999.8
20260904035520 44 0.0 0.0 0.00 0.00 0.00 1 999.9
20260904034521 44 0.0 0.0 0.00 0.00 0.00 1 999.9
20260904033521 44 0.0 0.0 0.00 0.00 0.00 1 1000.1
20260904032521 44 0.0 0.0 0.00 0.00 0.00 1 1000.1
20260904031520 44 0.0 0.0 0.00 0.00 0.00 1 1000.2
20260904030521 44 0.0 0.0 0.00 0.00 0.00 1 1000.2
20260904025521 44 0.0 2.0 0.00 0.00 0.00 1 1000.4
20260904024521 44 0.0 0.0 0.00 0.00 0.00 1 1000.6
20260904023520 44 0.0 0.0 0.00 0.00 0.00 1 1000.6
20260904022521 45 0.0 0.0 0.00 0.00 0.00 1 1000.7
20260904021521 45 0.0 0.0 0.00 0.00 0.00 1 1000.7
20260904020520 45 0.0 0.0 0.00 0.00 0.00 1 1000.8
20260904015521 45 0.0 0.0 0.00 0.00 0.00 1 1000.9
20260904014521 45 0.0 0.0 0.00 0.00 0.00 1 1000.9
20260904013521 45 0.0 0.0 0.00 0.00 0.00 1 1000.8
20260904012540 46 0.0 0.0 0.00 0.00 0.00 1 1000.9
20260904002521 47 0.0 0.0 0.00 0.00 0.00 1 1001.2
20260904001521 47 0.0 0.0 0.00 0.00 0.00 1 1001.2
20260904000520 47 0.0 0.0 0.00 0.00 0.00 1 1001.3
20260903235520 47 0.0 0.0 0.00 0.00 0.00 1 1001.4
20260903234521 47 0.0 0.0 0.00 0.00 0.00 1 1001.4
20260903233520 47 0.0 0.0 0.00 0.00 0.00 1 1001.6
20260903232521 47 0.0 0.0 0.00 0.00 0.00 1 1001.6
20260903231601 47 0.0 0.0 0.00 0.00 0.00 1 1001.7
20260903191521 52 0.0 0.0 0.00 0.00 0.00 1 1002.8
20260903190521 52 0.0 0.0 0.00 0.00 0.00 1 1002.8
20260903185521 52 0.0 2.0 0.00 0.00 0.00 1 1002.8
20260903184521 53 0.0 1.0 0.00 0.00 0.00 1 1002.8
20260903183521 53 0.0 3.0 0.00 0.00 0.00 1 1002.6
20260903182521 53 0.0 6.0 0.00 0.00 0.00 1 1002.7
20260903181521 53 158 2.0 6.0 0.00 0.00 0.00 1 1002.6
20260903180521 53 180 2.0 6.0 0.00 0.00 0.00 1 1002.6
20260903175521 52 270 1.0 3.0 0.00 0.01 0.00 1 1002.7
20260903174521 52 0.0 2.0 0.00 0.01 0.00 1 1002.5
20260903173521 52 0.0 0.0 0.00 0.01 0.00 1 1002.5
20260903172521 52 0.0 0.0 0.00 0.01 0.00 1 1002.2
20260903171541 52 0.0 3.0 0.00 0.01 0.00 1 1002.3
20260903161521 54 0.0 2.0 0.00 0.01 0.00 5 1002.3
20260903160521 54 293 1.0 4.0 0.00 0.01 0.00 1 1002.3
20260903155521 54 0.0 0.0 0.00 0.01 0.00 1 1002.5
20260903154522 55 0.0 3.0 0.00 0.01 0.00 1 1002.5
20260903153521 55 0.0 0.0 0.00 0.01 0.00 6 1002.2
20260903152521 55 0.0 0.0 0.00 0.01 0.00 19 1002.0
20260903151521 56 0.0 3.0 0.00 0.01 0.00 21 1002.1
20260903150601 56 0.0 2.0 0.00 0.01 0.00 27 1002.3
20260903140521 59 113 2.0 5.0 0.00 0.01 0.00 13 1002.5
20260903135521 59 0.0 0.0 0.00 0.01 0.00 5 1002.4
20260903134521 58 0.0 0.0 0.00 0.01 0.00 22 1002.4
20260903133521 59 0.0 2.0 0.00 0.01 0.00 57 1002.3
20260903132520 61 0.0 3.0 0.00 0.01 0.00 73 1002.4
20260903131521 62 0.0 2.0 0.00 0.01 0.00 73 1002.4
20260903130521 63 180 1.0 4.0 0.00 0.01 0.00 71 1002.4
20260903125541 63 180 4.0 13.0 0.00 0.01 0.00 69 1002.4
20260903105521 63 203 1.0 4.0 0.00 0.01 0.00 73 1002.6
20260903104521 63 293 1.0 4.0 0.00 0.01 0.00 71 1002.9
20260903103521 64 225 1.0 7.0 0.00 0.01 0.00 73 1002.9
20260903102521 64 270 1.0 6.0 0.00 0.01 0.00 72 1003.1
20260903101521 65 0.0 3.0 0.00 0.01 0.00 72 1003.1
20260903100521 66 270 2.0 11.0 0.00 0.01 0.00 69 1003.1
20260903095521 66 180 6.0 14.0 0.00 0.01 0.00 72 1003.1
20260903094621 65 225 2.0 13.0 0.00 0.01 0.00 72 1003.2